{"data":{"norad_id":52684,"intl_designator":"2022-053AE","name":"STARLINK-4014","alt_names":[],"object_type":"PAYLOAD","status":"ACTIVE","operator":null,"country":"US","launch_date":"2022-05-18","launch_site_code":"AFETR","launch_vehicle":null,"mission":null,"orbit_class":"UNKNOWN","rcs_meters":null,"size_class":null,"mass_kg":null,"dimensions":null,"purposes":["comms"],"wikipedia_slug":null,"has_3d_model":false,"image_url":null,"decayed_at":null,"tle_current":{"epoch":"2026-09-20T04:00:03.000096Z","epoch_age_seconds":95266,"freshness":"FRESH","line1":"1 52684U 22053AE  26263.16670139  .00090760  00000+0  34169-2 0  9995","line2":"2 52684  53.1606 349.0868 0000797  64.9896 267.8298 15.26361693  5842","mean_motion":15.26361693,"eccentricity":7.97e-5,"inclination_deg":53.1606,"raan_deg":349.0868,"arg_perigee_deg":64.9896,"mean_anomaly_deg":267.8298,"bstar":0.0034169,"rev_number":584,"period_min":94.341990276875,"perigee_km":486.15244428276,"apogee_km":487.2466992323,"semimajor_km":6864.8365717575,"source":"CELESTRAK","updated_at":"2026-09-20T09:00:40.105665Z"}}}